sat.trackr.live / text

‹ back to catalog

ONEWEB-0190

NORAD 48796 · 2021-045AF

PAYLOAD ACTIVE UNKNOWN

§ Identity

Operator
Country
UK
Launch date
2021-05-28
Launch site
VOSTO
Launch vehicle
Mass (kg)
RCS (m²)

Purposes: comms

External: N2YO · Heavens-Above · Gunter

§ Orbital elements

Epoch: 2026-05-25T00:53:14.549280Z

Period
109.46 min
Inclination
87.8989°
Eccentricity
0.0001416
Mean motion
13.15549456 rev/d
Perigee alt
1,200.7 km
Apogee alt
1,202.8 km
Semi-major
7,579.9 km
B*
-2.0442e-4
RAAN
263.8097°
Arg perigee
81.1389°
Mean anomaly
278.9901°
Rev number
24,132

§ Raw data

ONEWEB-01901 48796U 21045AF  26145.03697395 -.00000064  00000+0 -20442-3 0  99922 48796  87.8989 263.8097 0001416  81.1389 278.9901 13.15549456241323

JSON: /api/v1/satellites/48796 · /tle

For live sub-satellite position, see the globe view (requires WebGL).

§ Visibility from observer

Set your observer location to see the next 7 days of passes ≥ 10°. The values pass through the URL so the page stays shareable.

No JS? Fill the form by hand. The geolocation button needs JavaScript.